Regional Weather Roundup
Issued by NWS

Home | Current Version | Previous Version | Text Only | Print | Product List | Glossary On
Versions: 1 2 3 4 5 6 7 8 9 10 11 12 13 14 15 16 17 18 19 20 21 22 23 24 25 26 27 28 29 30 31 32 33 34 35 36 37 38 39 40 41 42 43 44 45 46 47 48 49 50
000
ASUS44 KJAN 281510
RWRMS

MISSISSIPPI HOURLY WEATHER ROUNDUP
NATIONAL WEATHER SERVICE JACKSON MS
1000 AM CDT TUE APR 28 2015

NOTE: "FAIR: INDICATES FEW OR NO CLOUDS BELOW 12,000 FEET WITH NO
SIGNIFICANT WEATHER AND/OR OBSTRUCTIONS TO VISIBILITY.

MSZ001>002-007>008-010>013-018>021-025>028-034>036-281600-
NORTHWEST MISSISSIPPI

CITY           SKY/WX    TMP DP  RH WIND       PRES   REMARKS
CLARKSDALE     FAIR      55  46  71 N14       30.01R
CLEVELAND      LGT RAIN  54  50  85 N9        29.97R
GREENWOOD      CLOUDY    56  46  69 N7        29.94R
GREENVILLE     CLOUDY    57  48  72 N15       29.95R
OLIVE BRANCH   PTSUNNY   54  45  71 NE8       30.01R
OXFORD         FAIR      54  41  62 N5        29.99R
TUNICA         CLOUDY    55  45  67 N8        30.02R
$$

MSZ003>006-009-014>017-022>024-029>033-037>039-281600-
NORTHEAST MISSISSIPPI

CITY           SKY/WX    TMP DP  RH WIND       PRES   REMARKS
COLUMBUS AFB   PTSUNNY   61  44  54 N12       29.91S
CORINTH        FAIR      61  43  51 NE10      29.96S
GOLDN TRIANGLE SUNNY     59  45  58 N6        29.90F
STARKVILLE     PTSUNNY   57  45  62 NE8       29.92S
TUPELO         PTSUNNY   57  41  55 NE10      29.95R
$$

MSZ040-058-281600-
CENTRAL MISSISSIPPI

CITY           SKY/WX    TMP DP  RH WIND       PRES   REMARKS
JACKSON INTL   LGT RAIN  58  49  72 N10       29.90R
JACKSON HAWKNS NOT AVBL
MERIDIAN KEY   CLOUDY    61  46  57 NE8       29.88R
MERIDIAN NAS   CLOUDY    60  45  57 E5        29.89R
RAYMOND        FAIR      55  52  88 E6        29.89F
VICKSBURG      CLOUDY    58  50  75 NE12      29.91R
$$

MSZ059>079-281600-
SOUTH MISSISSIPPI

CITY           SKY/WX    TMP DP  RH WIND       PRES   REMARKS
BROOKHAVEN     PTSUNNY   61  54  77 NE5       29.89S
HATTIESBURG    CLOUDY    65  51  60 NE5       29.85R
MCCOMB         CLOUDY    63  51  65 NE5       29.86R
NATCHEZ        PTSUNNY   61  54  77 E9        29.86F
PINE BELT      MOSUNNY   64  48  55 NE5       29.86R
$$

MSZ080>082-281600-
COASTAL MISSISSIPPI

CITY           SKY/WX    TMP DP  RH WIND       PRES   REMARKS
BAY ST LOUIS   CLOUDY    66  55  68 MISG      29.82S
BILOXI         MOSUNNY   69  61  75 VRB2      29.81R
PASCAGOULA     CLOUDY    70  62  76 CALM      29.82R
GULFPORT       MOSUNNY   70  60  70 CALM      29.81R
$$


USA.gov is the U.S. government's official web portal to all federal, state and local government web resources and services.